Flag for Netherlands Weather past 2 weeks in Utrecht, Netherlands

Now
63 °F

Passing clouds.


Feels Like: 63 °F
Forecast: 50 / 67 °F
Wind: 15 mph from Northwest

Location: Amsterdam Schiphol Airport

Current Time: Jul 30, 2015 at 4:35:25 PM

Latest Report: Jul 30, 2015 at 3:55 PM


Visibility: N/A

Pressure: 30.01 "Hg

Humidity: 59%

Dew point: 48 °F

Location of UtrechtLocation

Historic Weather in Utrecht — Graph

°F

Utrecht temperature yesterday

Maximum temperature yesterday: 63 °F (at 10:25 AM)
Minimum temperature yesterday: 52 °F (at 5:55 AM)
Average temperature yesterday: 59 °F

Past Weeks' High & Low Weather Summary

 TemperatureHumidityPressure
High77 °F (Jul 17, 2:25 PM)100% (Jul 19, 10:55 AM)30.12 "Hg (Jul 19, 10:55 AM)
Low48 °F (Jul 26, 3:55 AM)40% (Jul 18, 5:25 PM)29.36 "Hg (Jul 25, 9:55 AM)
Average63 °F76%29.84 "Hg
* Reported Jul 15 3:25 PM — Jul 30 3:25 PM, Utrecht, Weather by CustomWeather, © 2015

Note: Actual official high and low records may vary slightly from our data, if they occured in-between our weather recording intervals... More about our weather records

Advertising

Utrecht weather history for previous 24 hours

 ConditionsComfort  
Time TempWeatherWind HumidityBarometerVisibility
3:25 PM
Thu, Jul 30
63 °FPassing clouds.16 mph64%30.01 "HgN/A
2:55 PM64 °FPassing clouds.17 mph60%30.01 "HgN/A
2:25 PM61 °FPassing clouds.17 mph59%30.01 "HgN/A
1:55 PM61 °FPassing clouds.16 mph68%29.98 "HgN/A
1:25 PM63 °FPassing clouds.17 mph64%29.98 "HgN/A
12:55 PM61 °FPassing clouds.13 mph72%29.98 "HgN/A
12:25 PM59 °FPassing clouds.12 mph82%29.98 "HgN/A
11:55 AM61 °FSprinkles. Scattered clouds.17 mph72%29.98 "HgN/A
11:25 AM63 °FScattered showers. Passing clouds.16 mph64%29.95 "HgN/A
10:55 AM63 °FScattered showers. Scattered clouds.15 mph59%29.95 "HgN/A
10:25 AM61 °FPassing clouds.15 mph68%29.95 "HgN/A
9:55 AM61 °FPassing clouds.13 mph72%29.95 "HgN/A
9:25 AM59 °FScattered showers. Passing clouds.9 mph82%29.95 "HgN/A
8:55 AM55 °FSprinkles. Passing clouds.10 mph88%29.92 "HgN/A
8:25 AM57 °FSprinkles. Passing clouds.14 mph82%29.92 "HgN/A
7:55 AM55 °FScattered showers. Passing clouds.8 mph82%29.92 "HgN/A
7:25 AM57 °FPassing clouds.9 mph77%29.92 "HgN/A
6:55 AM55 °FPassing clouds.8 mph82%29.92 "HgN/A
6:25 AM54 °FPassing clouds.8 mph82%29.89 "HgN/A
5:55 AM54 °FPassing clouds.8 mph82%29.89 "HgN/A
5:25 AM54 °FPassing clouds.8 mph82%29.89 "HgN/A
4:55 AM54 °FPassing clouds.8 mph82%29.89 "HgN/A
4:25 AM54 °FPassing clouds.9 mph82%29.89 "HgN/A
3:55 AM54 °FPassing clouds.9 mph82%29.89 "HgN/A
3:25 AM54 °FPassing clouds.9 mph88%29.89 "HgN/A
2:55 AM54 °FPassing clouds.9 mph82%29.89 "HgN/A
2:25 AM55 °FPassing clouds.10 mph77%29.89 "HgN/A
1:55 AM55 °FPassing clouds.10 mph77%29.89 "HgN/A
1:25 AM55 °FPassing clouds.12 mph77%29.89 "HgN/A
12:55 AM55 °FPassing clouds.10 mph82%29.89 "HgN/A
12:25 AM55 °FPassing clouds.12 mph77%29.89 "HgN/A
11:55 PM
Wed, Jul 29
55 °FPassing clouds.13 mph77%29.86 "HgN/A
11:25 PM57 °FPassing clouds.12 mph77%29.86 "HgN/A
10:55 PM57 °FPassing clouds.14 mph77%29.86 "HgN/A
10:25 PM57 °FPassing clouds.14 mph77%29.86 "HgN/A
9:55 PM57 °FPassing clouds.16 mph72%29.86 "HgN/A
9:25 PM57 °FPassing clouds.17 mph77%29.86 "HgN/A
8:55 PM59 °FPassing clouds.17 mph68%29.83 "HgN/A
8:25 PM59 °FPassing clouds.18 mph72%29.83 "HgN/A
7:55 PM61 °FPassing clouds.23 mph63%29.83 "HgN/A
7:25 PM59 °FPassing clouds.24 mph68%29.80 "HgN/A
6:55 PM61 °FPassing clouds.25 mph63%29.80 "HgN/A
6:25 PM61 °FPassing clouds.25 mph63%29.80 "HgN/A
5:55 PM63 °FPassing clouds.28 mph59%29.80 "HgN/A
5:25 PM63 °FPassing clouds.28 mph59%29.77 "HgN/A
4:55 PM61 °FPassing clouds.22 mph68%29.77 "HgN/A
4:25 PM61 °FScattered clouds.29 mph63%29.77 "HgN/A
Weather by CustomWeather, © 2015

See weather overviewHow to use our weather pages